TITAN 3C TRANSTAGE DEB, 43455

Orbit data source: Space-Track

TITAN 3C TRANSTAGE DEB, 43455 is space debris originally from a launch on Sun, 09 Feb 1969 UTC launched from the Air Force Eastern Test Range (AFETR). Debris objects in space refer to the collection of defunct objects orbiting the Earth. Examples of debris include non-operational satellites, rocket bodies, and fragments generated from explosions, collisions, or faulty payload assembly.

Not visible in the next 10 days
TITAN 3C TRANSTAGE DEB details
Identifier
43455, 1969-013N
Orbit
Active
Last TLE update1 day ago
Origin
Flag of USUSAF SMC (US)
ManufacturerMartin Marietta
MissionSpacecraft
Bus & MotorUnknown
MassUnknown
Launch date (UTC)
1969-02-09 (56 years ago)
Launch vehicleUnknown
Launch site
Air Force Eastern Test Range (AFETR)
Object type
Payload
Rocket body
Debris
Shape & HBRUnknown
Radar Cross SectionRCS unknown

Expand to show TLE details & history

TLE from 1 day ago
0 TITAN 3C TRANSTAGE DEB
1 43455U 69013N   24325.28676259 -.00000124  00000-0  00000+0 0  9998
2 43455   1.4024 208.7927 0285885  16.5088 345.3116  0.94029341 22945
Epoch: 2024-11-20T06:52Z
Definitive object data (Epoch: 2024-11-20T06:52:56.287Z)
Latitude-0.00001°
Longitude46.69961°
Altitude36,413.657 km
Speed3.094 km/s
True Right ascension13h 58m 52s
True Declination0° 00' 00"
Sunlit
Object was in daylight at TLE epoch
Visualization TLE readout
Latitude0.68603°
Longitude75.93112°
Altitude36,401.902 km
Speed3.095 km/s
Apparent Right ascension16h 15m 09s
Apparent Declination-4° 25' 49"
Sunlit
Object is in daylight
Visualization observer readout
Local Sidereal Time07:24:59
Azimuth63.059° ENE
Elevation-34.515°
Doppler factor1
Orbital elements
Apogee altitude38,891.956 km
Perigee altitude36,375.49 km
Semi-major axis44,011.86 km
Eccentricity0.0285885
Inclination1.4024°
RAAN208.7927°
Arg. of periapsis16.5088°
True anomaly344.45126°
Mean anomaly345.3116°
Eccentric anomaly344.88446°
Mean motion0.23507 °/min
BSTARUnknown
Orbital period1531.49 mins
Loading maneuver chart data...

TITAN 3C TRANSTAGE DEB Visibility forecast

Observer location: undefined°, undefined

TITAN 3C TRANSTAGE DEB is not visible in the next 10 days
Span
Click to sort rows by Start time (UTC) header in descending order
Start Az.
Max El. time (UTC)
Max El. Az.
Max El.
End time (UTC)
End Az.
|